| time (UTC) | temp C | wind direction | speed KPH | gust KPH | rain 1hr cm | rain 24hr cm | rain mn cm | humidity % | barometer mb |
| 20260506115340 | 11 | 90 | 1.6 | 14.5 | 0.00 | 9.78 | 0.00 | 1 | 1019.2 |
| 20260506114839 | 11 | 23 | 3.2 | 17.7 | 0.00 | 9.78 | 0.00 | 1 | 1019.3 |
| 20260506114338 | 11 | 0 | 4.8 | 19.3 | 0.00 | 9.78 | 0.00 | 1 | 1019.2 |
| 20260506113840 | 11 | 265 | 6.4 | 19.3 | 0.00 | 9.78 | 0.00 | 1 | 1019.1 |
| 20260506113338 | 11 | 0 | 6.4 | 19.3 | 0.00 | 9.78 | 0.00 | 1 | 1019.1 |
| 20260506112839 | 11 | 97 | 3.2 | 19.3 | 0.00 | 9.78 | 0.00 | 1 | 1019.1 |
| 20260506112339 | 11 | 169 | 4.8 | 16.1 | 0.00 | 9.78 | 0.00 | 1 | 1019.0 |
| 20260506111838 | 11 | 49 | 3.2 | 16.1 | 0.00 | 9.78 | 0.00 | 1 | 1019.0 |
| 20260506111338 | 11 | 0 | 4.8 | 16.1 | 0.00 | 9.78 | 0.00 | 1 | 1018.9 |
| 20260506110838 | 11 | 16 | 4.8 | 20.9 | 0.00 | 9.78 | 0.00 | 1 | 1019.0 |
| 20260506110339 | 11 | 0 | 9.7 | 20.9 | 0.00 | 9.78 | 0.00 | 1 | 1018.9 |
| 20260506105838 | 11 | 8 | 6.4 | 19.3 | 0.00 | 9.78 | 0.00 | 1 | 1018.9 |
| 20260506105626 | 11 | 220 | 4.8 | 19.3 | 0.00 | 9.78 | 0.00 | 1 | 1018.9 |
| 20260506104835 | 11 | 120 | 3.2 | 19.3 | 0.00 | 9.78 | 0.00 | 1 | 1018.9 |
| 20260506104335 | 11 | 197 | 6.4 | 16.1 | 0.00 | 9.78 | 0.00 | 1 | 1018.8 |
| 20260506103833 | 11 | 296 | 4.8 | 17.7 | 0.00 | 9.78 | 0.00 | 1 | 1018.8 |
| 20260506103332 | 11 | 281 | 8.0 | 19.3 | 0.00 | 9.78 | 0.00 | 1 | 1018.8 |
| 20260506102831 | 11 | 141 | 6.4 | 20.9 | 0.00 | 9.78 | 0.00 | 1 | 1018.8 |
| 20260506102331 | 11 | 269 | 8.0 | 20.9 | 0.00 | 9.78 | 0.00 | 1 | 1018.8 |
| 20260506101832 | 11 | 0 | 6.4 | 19.3 | 0.00 | 9.78 | 0.00 | 1 | 1018.7 |
| 20260506101333 | 11 | 62 | 6.4 | 17.7 | 0.00 | 9.78 | 0.00 | 1 | 1018.7 |
| 20260506100831 | 11 | 354 | 8.0 | 17.7 | 0.00 | 9.78 | 0.00 | 1 | 1018.7 |
| 20260506100331 | 11 | 327 | 4.8 | 11.3 | 0.00 | 9.78 | 0.00 | 1 | 1018.7 |
| 20260506095832 | 11 | 317 | 3.2 | 17.7 | 0.00 | 9.78 | 0.00 | 1 | 1018.8 |
| 20260506095330 | 11 | 0 | 4.8 | 17.7 | 0.00 | 9.78 | 0.00 | 1 | 1018.7 |
| 20260506094830 | 11 | 281 | 6.4 | 16.1 | 0.00 | 9.78 | 0.00 | 1 | 1018.8 |
| 20260506094329 | 11 | 296 | 6.4 | 14.5 | 0.00 | 9.78 | 0.00 | 1 | 1018.8 |
| 20260506093825 | 11 | 333 | 3.2 | 11.3 | 0.00 | 9.78 | 0.00 | 1 | 1018.8 |
| 20260506093319 | 11 | 0 | 3.2 | 17.7 | 0.00 | 9.80 | 0.00 | 1 | 1018.8 |
| 20260506092818 | 11 | 296 | 6.4 | 17.7 | 0.00 | 9.80 | 0.00 | 1 | 1018.8 |
| 20260506092313 | 12 | 282 | 4.8 | 16.1 | 0.00 | 9.80 | 0.00 | 1 | 1018.7 |
| 20260506091809 | 12 | 254 | 6.4 | 19.3 | 0.00 | 9.80 | 0.00 | 1 | 1018.6 |
| 20260506091307 | 11 | 272 | 6.4 | 19.3 | 0.00 | 9.80 | 0.00 | 1 | 1018.6 |
| 20260506090804 | 12 | 0 | 4.8 | 19.3 | 0.00 | 9.80 | 0.00 | 1 | 1018.6 |
| 20260506090304 | 12 | 0 | 6.4 | 19.3 | 0.00 | 9.80 | 0.00 | 1 | 1018.7 |
| 20260506090134 | 12 | 338 | 4.8 | 20.9 | 0.00 | 9.80 | 0.00 | 1 | 1018.6 |
| 20260506090129 | 12 | 337 | 8.0 | 19.3 | 0.00 | 9.80 | 0.00 | 1 | 1018.6 |
| 20260506084803 | 12 | 0 | 6.4 | 20.9 | 0.00 | 9.80 | 0.00 | 1 | 1018.7 |
| 20260506084556 | 12 | 0 | 6.4 | 22.5 | 0.00 | 9.80 | 0.00 | 1 | 1018.7 |
| 20260506084047 | 12 | 265 | 6.4 | 22.5 | 0.00 | 9.80 | 0.00 | 1 | 1018.7 |
| 20260506083305 | 12 | 4 | 6.4 | 17.7 | 0.00 | 9.80 | 0.00 | 1 | 1018.7 |
| 20260506082804 | 12 | 285 | 6.4 | 17.7 | 0.00 | 9.80 | 0.00 | 1 | 1018.7 |
| 20260506082305 | 12 | 286 | 6.4 | 17.7 | 0.00 | 9.83 | 0.00 | 1 | 1018.8 |
| 20260506081803 | 12 | 18 | 6.4 | 17.7 | 0.00 | 9.83 | 0.00 | 1 | 1018.8 |
| 20260506081303 | 12 | 241 | 4.8 | 16.1 | 0.00 | 9.83 | 0.00 | 1 | 1018.8 |
| 20260506080805 | 12 | 296 | 3.2 | 17.7 | 0.00 | 9.86 | 0.00 | 1 | 1018.9 |
| 20260506080303 | 12 | 0 | 3.2 | 19.3 | 0.00 | 9.86 | 0.00 | 1 | 1018.8 |
| 20260506073305 | 11 | 207 | 6.4 | 20.9 | 0.00 | 9.91 | 0.00 | 1 | 1018.5 |
| 20260506072804 | 11 | 1 | 8.0 | 20.9 | 0.00 | 9.91 | 0.00 | 1 | 1018.6 |
| 20260506072551 | 11 | 265 | 6.4 | 20.9 | 0.00 | 9.91 | 0.00 | 1 | 1018.5 |
| 20260506071804 | 11 | 321 | 8.0 | 20.9 | 0.00 | 9.93 | 0.00 | 1 | 1018.5 |
| 20260506071553 | 12 | 278 | 11.3 | 20.9 | 0.00 | 9.93 | 0.00 | 1 | 1018.4 |
| 20260506070804 | 12 | 97 | 1.6 | 20.9 | 0.00 | 9.93 | 0.00 | 1 | 1018.5 |
| 20260506070235 | 12 | 0 | 8.0 | 19.3 | 0.00 | 9.93 | 0.00 | 1 | 1018.4 |
| 20260506062229 | 12 | 282 | 9.7 | 19.3 | 0.00 | 9.93 | 9.93 | 1 | 1018.1 |
| 20260506061729 | 12 | 121 | 4.8 | 20.9 | 0.00 | 9.93 | 9.93 | 1 | 1018.1 |
| 20260506061229 | 12 | 327 | 4.8 | 25.7 | 0.00 | 9.93 | 9.93 | 1 | 1018.1 |
| 20260506060730 | 12 | 278 | 4.8 | 25.7 | 0.00 | 9.96 | 9.93 | 1 | 1018.1 |
| 20260506060229 | 12 | 0 | 3.2 | 20.9 | 0.00 | 9.96 | 9.93 | 1 | 1018.0 |
| 20260506051228 | 12 | 0 | 6.4 | 22.5 | 0.00 | 9.98 | 9.93 | 1 | 1017.8 |
| 20260506050728 | 12 | 320 | 11.3 | 25.7 | 0.00 | 10.01 | 9.93 | 1 | 1017.8 |
| 20260506050227 | 12 | 264 | 9.7 | 25.7 | 0.00 | 10.01 | 9.93 | 1 | 1017.8 |
| 20260506044727 | 12 | 18 | 6.4 | 24.1 | 0.00 | 10.03 | 9.93 | 1 | 1017.7 |
| 20260506044517 | 12 | 31 | 4.8 | 24.1 | 0.00 | 10.03 | 9.93 | 1 | 1017.6 |
| 20260506043728 | 12 | 282 | 6.4 | 27.4 | 0.00 | 10.03 | 9.93 | 1 | 1017.6 |
| 20260506043227 | 12 | 293 | 8.0 | 27.4 | 0.00 | 10.03 | 9.93 | 1 | 1017.6 |
| 20260506042726 | 12 | 303 | 8.0 | 22.5 | 0.00 | 10.03 | 9.93 | 1 | 1017.5 |
| 20260506042228 | 12 | 23 | 6.4 | 25.7 | 0.00 | 10.03 | 9.93 | 1 | 1017.4 |
| 20260506042014 | 12 | 14 | 8.0 | 25.7 | 0.00 | 10.03 | 9.93 | 1 | 1017.3 |
| 20260506041226 | 12 | 327 | 8.0 | 22.5 | 0.00 | 10.03 | 9.93 | 1 | 1017.3 |
| 20260506040726 | 12 | 0 | 9.7 | 27.4 | 0.00 | 10.03 | 9.93 | 1 | 1017.1 |
| 20260506040513 | 12 | 0 | 4.8 | 27.4 | 0.00 | 10.03 | 9.93 | 1 | 1017.0 |
| 20260506035726 | 12 | 183 | 6.4 | 20.9 | 0.00 | 10.03 | 9.93 | 1 | 1016.9 |
| 20260506035310 | 12 | 259 | 6.4 | 24.1 | 0.00 | 10.03 | 9.93 | 1 | 1016.8 |
| 20260506035257 | 12 | 13 | 8.0 | 24.1 | 0.00 | 10.03 | 9.93 | 1 | 1016.9 |
| 20260506034226 | 12 | 289 | 8.0 | 27.4 | 0.00 | 10.03 | 9.93 | 1 | 1016.8 |
| 20260506033727 | 12 | 0 | 8.0 | 27.4 | 0.00 | 10.03 | 9.93 | 1 | 1016.6 |
| 20260506033226 | 12 | 238 | 11.3 | 30.6 | 0.00 | 10.03 | 9.93 | 1 | 1016.6 |
| 20260506032725 | 12 | 142 | 16.1 | 30.6 | 0.00 | 10.03 | 9.93 | 1 | 1016.6 |
| 20260506032226 | 12 | 231 | 17.7 | 29.0 | 0.00 | 10.03 | 9.93 | 1 | 1016.5 |
| 20260506031726 | 12 | 24 | 6.4 | 25.7 | 0.00 | 10.03 | 9.93 | 1 | 1016.5 |
| 20260506031229 | 12 | 247 | 8.0 | 25.7 | 0.00 | 10.03 | 9.93 | 1 | 1016.4 |
| 20260506030726 | 12 | 274 | 8.0 | 25.7 | 0.00 | 10.03 | 9.93 | 1 | 1016.4 |
| 20260506030226 | 12 | 264 | 11.3 | 30.6 | 0.00 | 10.03 | 9.93 | 1 | 1016.3 |
| 20260506025726 | 12 | 0 | 9.7 | 32.2 | 0.00 | 10.03 | 9.93 | 1 | 1016.3 |
| 20260506025226 | 13 | 320 | 8.0 | 32.2 | 0.00 | 10.03 | 9.93 | 1 | 1016.1 |
| 20260506024726 | 13 | 197 | 9.7 | 33.8 | 0.00 | 10.03 | 9.93 | 1 | 1016.2 |
| 20260506024512 | 13 | 130 | 8.0 | 33.8 | 0.00 | 10.03 | 9.93 | 1 | 1016.2 |
| 20260506023724 | 13 | 264 | 14.5 | 30.6 | 0.00 | 10.03 | 9.93 | 1 | 1016.2 |
| 20260506023301 | 13 | 258 | 14.5 | 38.6 | 0.00 | 10.03 | 9.93 | 1 | 1016.1 |
| 20260506023248 | 13 | 250 | 9.7 | 38.6 | 0.00 | 10.03 | 9.93 | 1 | 1016.1 |
| 20260506022225 | 13 | 264 | 8.0 | 33.8 | 0.00 | 10.03 | 9.93 | 1 | 1016.1 |
| 20260506021725 | 13 | 230 | 14.5 | 33.8 | 0.00 | 10.03 | 9.93 | 1 | 1016.0 |
| 20260506021511 | 13 | 96 | 8.0 | 32.2 | 0.00 | 10.03 | 9.93 | 1 | 1015.9 |
| 20260506020723 | 13 | 13 | 14.5 | 35.4 | 0.00 | 10.03 | 9.93 | 1 | 1015.8 |
| 20260506020225 | 13 | 250 | 16.1 | 35.4 | 0.00 | 10.03 | 9.93 | 1 | 1015.9 |
| 20260506015724 | 13 | 265 | 16.1 | 35.4 | 0.00 | 10.03 | 9.93 | 1 | 1015.9 |
| 20260506015223 | 13 | 69 | 8.0 | 30.6 | 0.00 | 10.03 | 9.93 | 1 | 1015.8 |
| 20260506014724 | 13 | 224 | 17.7 | 37.0 | 0.00 | 10.03 | 9.93 | 1 | 1015.8 |
| 20260506014223 | 13 | 209 | 17.7 | 37.0 | 0.00 | 10.03 | 9.93 | 1 | 1015.8 |
| 20260506013724 | 14 | 227 | 14.5 | 33.8 | 0.00 | 10.03 | 9.93 | 1 | 1015.9 |
| 20260506013224 | 14 | 268 | 17.7 | 35.4 | 0.00 | 10.03 | 9.93 | 1 | 1015.9 |
| 20260506012722 | 14 | 238 | 17.7 | 38.6 | 0.00 | 10.03 | 9.93 | 1 | 1015.9 |
| 20260506012301 | 15 | 271 | 17.7 | 35.4 | 0.00 | 10.03 | 9.93 | 1 | 1015.9 |
| 20260506012249 | 14 | 271 | 17.7 | 38.6 | 0.00 | 10.03 | 9.93 | 1 | 1015.9 |
| 20260506011222 | 15 | 269 | 11.3 | 35.4 | 0.00 | 10.03 | 9.93 | 1 | 1015.9 |
| 20260506010724 | 14 | 348 | 17.7 | 37.0 | 9.75 | 10.03 | 9.93 | 1 | 1015.8 |
| 20260506010221 | 14 | 0 | 20.9 | 37.0 | 9.75 | 10.03 | 9.93 | 1 | 1015.8 |
| 20260506005723 | 15 | 289 | 14.5 | 35.4 | 9.75 | 0.28 | 9.93 | 1 | 1015.8 |
| 20260506005223 | 15 | 289 | 14.5 | 35.4 | 9.75 | 0.28 | 9.93 | 1 | 1015.8 |
| 20260506004723 | 15 | 251 | 22.5 | 37.0 | 9.75 | 0.28 | 9.93 | 1 | 1015.7 |
| 20260506004257 | 15 | 97 | 12.9 | 29.0 | 9.75 | 0.28 | 9.93 | 1 | 1015.7 |
| 20260506004246 | 15 | 272 | 24.1 | 37.0 | 9.75 | 0.28 | 9.93 | 1 | 1015.7 |
| 20260506003222 | 14 | 290 | 14.5 | 37.0 | 9.75 | 0.28 | 9.93 | 1 | 1015.5 |
| 20260506002721 | 14 | 266 | 19.3 | 43.5 | 9.75 | 0.28 | 9.93 | 1 | 1015.6 |
| 20260506002222 | 14 | 17 | 20.9 | 43.5 | 9.75 | 0.28 | 9.93 | 1 | 1015.4 |
| 20260506001722 | 14 | 272 | 16.1 | 38.6 | 9.75 | 0.28 | 9.93 | 1 | 1015.5 |
| 20260506001222 | 14 | 189 | 17.7 | 35.4 | 9.75 | 0.28 | 9.93 | 1 | 1015.5 |
| 20260506000719 | 14 | 309 | 16.1 | 33.8 | 0.00 | 0.28 | 0.18 | 1 | 1015.5 |
| 20260506000222 | 14 | 258 | 14.5 | 35.4 | 0.00 | 0.28 | 0.18 | 1 | 1015.5 |
| 20260505235720 | 14 | 303 | 19.3 | 38.6 | 0.00 | 0.28 | 0.18 | 1 | 1015.5 |
| 20260505235506 | 14 | 234 | 12.9 | 43.5 | 0.00 | 0.28 | 0.18 | 1 | 1015.6 |
| 20260505234722 | 13 | 282 | 24.1 | 43.5 | 0.00 | 0.28 | 0.18 | 1 | 1015.5 |
| 20260505234220 | 14 | 257 | 24.1 | 38.6 | 0.00 | 0.28 | 0.18 | 1 | 1015.6 |
| 20260505233720 | 14 | 231 | 25.7 | 38.6 | 0.00 | 0.28 | 0.18 | 1 | 1015.6 |
| 20260505233221 | 14 | 276 | 11.3 | 37.0 | 0.00 | 0.28 | 0.18 | 1 | 1015.5 |
| 20260505232721 | 14 | 243 | 9.7 | 37.0 | 0.00 | 0.28 | 0.18 | 1 | 1015.6 |
| 20260505232504 | 14 | 272 | 14.5 | 41.8 | 0.00 | 0.28 | 0.18 | 1 | 1015.7 |
| 20260505231721 | 14 | 258 | 19.3 | 41.8 | 0.00 | 0.28 | 0.18 | 1 | 1015.6 |
| 20260505231219 | 14 | 272 | 20.9 | 43.5 | 0.00 | 0.28 | 0.18 | 1 | 1015.7 |
| 20260505230720 | 14 | 293 | 19.3 | 45.1 | 0.00 | 0.28 | 0.18 | 1 | 1015.6 |
| 20260505230508 | 15 | 0 | 27.4 | 45.1 | 0.00 | 0.28 | 0.18 | 1 | 1015.6 |
| 20260505230053 | 15 | 264 | 16.1 | 37.0 | 0.00 | 0.28 | 0.18 | 1 | 1015.5 |
| 20260505225751 | 15 | 237 | 20.9 | 43.5 | 0.00 | 0.28 | 0.18 | 1 | 1015.5 |
| 20260505224721 | 15 | 261 | 20.9 | 38.6 | 0.00 | 0.28 | 0.18 | 1 | 1015.5 |
| 20260505224220 | 15 | 309 | 17.7 | 38.6 | 0.00 | 0.28 | 0.18 | 1 | 1015.5 |
| 20260505223718 | 15 | 154 | 19.3 | 33.8 | 0.00 | 0.28 | 0.18 | 1 | 1015.6 |
| 20260505223218 | 15 | 265 | 9.7 | 41.8 | 0.00 | 0.28 | 0.18 | 1 | 1015.5 |
| 20260505222718 | 14 | 269 | 16.1 | 41.8 | 0.00 | 0.28 | 0.18 | 1 | 1015.6 |
| 20260505222217 | 14 | 233 | 16.1 | 38.6 | 0.00 | 0.28 | 0.18 | 1 | 1015.6 |
| 20260505221717 | 13 | 13 | 20.9 | 37.0 | 0.00 | 0.28 | 0.18 | 1 | 1015.7 |
| 20260505221218 | 14 | 353 | 17.7 | 33.8 | 0.00 | 0.28 | 0.18 | 1 | 1015.8 |
| 20260505220717 | 14 | 0 | 9.7 | 32.2 | 0.00 | 0.28 | 0.18 | 1 | 1015.8 |
| 20260505220218 | 14 | 269 | 16.1 | 33.8 | 0.00 | 0.28 | 0.18 | 1 | 1015.8 |
| 20260505215717 | 14 | 290 | 14.5 | 35.4 | 0.00 | 0.28 | 0.18 | 1 | 1015.9 |
| 20260505215217 | 14 | 250 | 11.3 | 35.4 | 0.00 | 0.28 | 0.18 | 1 | 1015.9 |
| 20260505214959 | 14 | 275 | 12.9 | 35.4 | 0.00 | 0.28 | 0.18 | 1 | 1015.8 |
| 20260505214217 | 13 | 296 | 9.7 | 35.4 | 0.00 | 0.28 | 0.18 | 1 | 1015.9 |
| 20260505213716 | 13 | 257 | 22.5 | 37.0 | 0.00 | 0.28 | 0.18 | 1 | 1015.9 |
| 20260505213217 | 13 | 310 | 19.3 | 38.6 | 0.00 | 0.28 | 0.18 | 1 | 1015.9 |
| 20260505212716 | 13 | 266 | 20.9 | 38.6 | 0.00 | 0.28 | 0.18 | 1 | 1016.0 |
| 20260505212216 | 14 | 281 | 14.5 | 54.7 | 0.00 | 0.28 | 0.18 | 1 | 1016.0 |
| 20260505211958 | 14 | 230 | 16.1 | 54.7 | 0.00 | 0.28 | 0.18 | 1 | 1016.0 |
| 20260505211541 | 14 | 207 | 8.0 | 35.4 | 0.00 | 0.28 | 0.18 | 1 | 1015.9 |
| 20260505211535 | 15 | 257 | 16.1 | 41.8 | 0.00 | 0.28 | 0.18 | 1 | 1016.0 |
| 20260505210217 | 14 | 266 | 24.1 | 35.4 | 0.00 | 0.28 | 0.18 | 1 | 1015.9 |
| 20260505205717 | 15 | 275 | 20.9 | 35.4 | 0.00 | 0.28 | 0.18 | 1 | 1015.9 |
| 20260505205215 | 15 | 0 | 11.3 | 32.2 | 0.00 | 0.28 | 0.18 | 1 | 1015.9 |
| 20260505204715 | 15 | 271 | 17.7 | 35.4 | 0.00 | 0.28 | 0.18 | 1 | 1015.9 |
| 20260505204215 | 15 | 269 | 12.9 | 35.4 | 0.00 | 0.28 | 0.18 | 1 | 1015.9 |
| 20260505203716 | 15 | 292 | 12.9 | 38.6 | 0.00 | 0.28 | 0.18 | 1 | 1015.9 |
| 20260505203215 | 15 | 106 | 6.4 | 38.6 | 0.00 | 0.28 | 0.18 | 1 | 1015.9 |
| 20260505202716 | 15 | 290 | 16.1 | 37.0 | 0.00 | 0.28 | 0.18 | 1 | 1015.9 |
| 20260505202217 | 15 | 0 | 12.9 | 37.0 | 0.00 | 0.28 | 0.18 | 1 | 1015.9 |
| 20260505201959 | 16 | 279 | 11.3 | 35.4 | 0.00 | 0.28 | 0.18 | 1 | 1016.0 |
| 20260505201217 | 16 | 240 | 9.7 | 32.2 | 0.00 | 0.28 | 0.18 | 1 | 1015.8 |
| 20260505200716 | 16 | 299 | 9.7 | 29.0 | 0.00 | 0.28 | 0.18 | 1 | 1016.0 |
| 20260505200216 | 16 | 338 | 6.4 | 38.6 | 0.00 | 0.28 | 0.18 | 1 | 1015.8 |
| 20260505195716 | 16 | 11 | 20.9 | 38.6 | 0.00 | 0.28 | 0.18 | 1 | 1015.8 |
| 20260505195217 | 15 | 302 | 11.3 | 38.6 | 0.00 | 0.28 | 0.18 | 1 | 1016.0 |
| 20260505194713 | 15 | 261 | 11.3 | 38.6 | 0.00 | 0.28 | 0.18 | 1 | 1016.0 |
| 20260505194457 | 15 | 243 | 19.3 | 38.6 | 0.00 | 0.28 | 0.18 | 1 | 1016.0 |
| 20260505193952 | 15 | 279 | 19.3 | 37.0 | 0.00 | 0.28 | 0.18 | 1 | 1016.1 |
| 20260505193457 | 15 | 292 | 9.7 | 29.0 | 0.00 | 0.28 | 0.18 | 1 | 1016.1 |
| 20260505192717 | 15 | 0 | 16.1 | 29.0 | 0.00 | 0.28 | 0.18 | 1 | 1016.0 |
| 20260505192216 | 15 | 305 | 6.4 | 24.1 | 0.00 | 0.28 | 0.18 | 1 | 1016.1 |
| 20260505191714 | 15 | 21 | 9.7 | 37.0 | 0.00 | 0.28 | 0.18 | 1 | 1016.1 |
| 20260505191215 | 15 | 25 | 8.0 | 37.0 | 0.00 | 0.28 | 0.18 | 1 | 1016.0 |
| 20260505190714 | 15 | 266 | 8.0 | 37.0 | 0.00 | 0.28 | 0.18 | 1 | 1016.0 |
| 20260505190214 | 14 | 0 | 9.7 | 37.0 | 0.00 | 0.28 | 0.18 | 1 | 1015.8 |
| 20260505185715 | 14 | 275 | 14.5 | 33.8 | 0.00 | 0.28 | 0.18 | 1 | 1015.9 |
| 20260505185214 | 13 | 288 | 8.0 | 37.0 | 0.00 | 0.28 | 0.18 | 1 | 1015.9 |
| 20260505184714 | 13 | 56 | 17.7 | 37.0 | 0.00 | 0.28 | 0.18 | 1 | 1015.8 |
| 20260505184504 | 13 | 323 | 6.4 | 33.8 | 0.00 | 0.28 | 0.18 | 1 | 1015.8 |
| 20260505183715 | 13 | 92 | 12.9 | 30.6 | 0.00 | 0.28 | 0.18 | 1 | 1015.8 |
| 20260505183500 | 13 | 336 | 9.7 | 35.4 | 0.00 | 0.28 | 0.18 | 1 | 1015.9 |
| 20260505182713 | 13 | 262 | 11.3 | 38.6 | 0.00 | 0.28 | 0.18 | 1 | 1015.9 |
| 20260505182213 | 13 | 268 | 14.5 | 38.6 | 0.03 | 0.28 | 0.18 | 1 | 1015.9 |
| 20260505181713 | 13 | 27 | 11.3 | 30.6 | 0.03 | 0.28 | 0.18 | 1 | 1015.9 |
| 20260505181213 | 13 | 4 | 6.4 | 30.6 | 0.03 | 0.28 | 0.18 | 1 | 1015.9 |
| 20260505180713 | 13 | 34 | 4.8 | 30.6 | 0.03 | 0.28 | 0.18 | 1 | 1015.8 |
| 20260505180213 | 13 | 288 | 12.9 | 32.2 | 0.03 | 0.28 | 0.18 | 1 | 1015.6 |
| 20260505175714 | 13 | 103 | 8.0 | 32.2 | 0.03 | 0.25 | 0.18 | 1 | 1015.6 |
| 20260505175219 | 12 | 274 | 19.3 | 32.2 | 0.03 | 0.25 | 0.18 | 1 | 1015.6 |
| 20260505174712 | 12 | 207 | 14.5 | 30.6 | 0.03 | 0.25 | 0.18 | 1 | 1015.5 |
| 20260505174212 | 12 | 0 | 12.9 | 27.4 | 0.03 | 0.25 | 0.18 | 1 | 1015.5 |
| 20260505173712 | 12 | 338 | 4.8 | 29.0 | 0.03 | 0.25 | 0.18 | 1 | 1015.5 |
| 20260505173212 | 12 | 241 | 9.7 | 30.6 | 0.03 | 0.25 | 0.18 | 1 | 1015.6 |
| 20260505172712 | 12 | 275 | 12.9 | 30.6 | 0.03 | 0.25 | 0.18 | 1 | 1015.5 |
| 20260505172213 | 12 | 266 | 14.5 | 30.6 | 0.00 | 0.25 | 0.15 | 1 | 1015.5 |
| 20260505171712 | 12 | 258 | 12.9 | 30.6 | 0.00 | 0.25 | 0.15 | 1 | 1015.5 |
| 20260505171212 | 12 | 299 | 16.1 | 33.8 | 0.00 | 0.25 | 0.15 | 1 | 1015.4 |
| 20260505170713 | 12 | 0 | 9.7 | 33.8 | 0.00 | 0.25 | 0.15 | 1 | 1015.4 |
| 20260505170211 | 12 | 0 | 8.0 | 30.6 | 0.00 | 0.25 | 0.15 | 1 | 1015.3 |
| 20260505165954 | 12 | 44 | 8.0 | 30.6 | 0.00 | 0.25 | 0.15 | 1 | 1015.4 |
| 20260505165248 | 12 | 0 | 11.3 | 29.0 | 0.00 | 0.25 | 0.15 | 1 | 1015.5 |
| 20260505165236 | 12 | 68 | 6.4 | 29.0 | 0.00 | 0.25 | 0.15 | 1 | 1015.4 |
| 20260505164212 | 12 | 285 | 9.7 | 29.0 | 0.00 | 0.25 | 0.15 | 1 | 1015.4 |
| 20260505163712 | 12 | 261 | 12.9 | 29.0 | 0.00 | 0.25 | 0.15 | 1 | 1015.4 |
| 20260505163212 | 12 | 134 | 6.4 | 29.0 | 0.00 | 0.25 | 0.15 | 1 | 1015.4 |
| 20260505162710 | 12 | 288 | 6.4 | 25.7 | 0.00 | 0.25 | 0.15 | 1 | 1015.5 |
| 20260505162210 | 12 | 278 | 9.7 | 29.0 | 0.00 | 0.25 | 0.15 | 1 | 1015.4 |
| 20260505161711 | 11 | 250 | 8.0 | 29.0 | 0.00 | 0.25 | 0.15 | 1 | 1015.3 |
| 20260505161210 | 11 | 276 | 8.0 | 22.5 | 0.00 | 0.25 | 0.15 | 1 | 1015.2 |
| 20260505161000 | 11 | 56 | 9.7 | 24.1 | 0.00 | 0.25 | 0.15 | 1 | 1015.2 |
| 20260505160212 | 11 | 75 | 6.4 | 25.7 | 0.00 | 0.25 | 0.15 | 1 | 1015.2 |
| 20260505153211 | 11 | 319 | 9.7 | 33.8 | 0.00 | 0.25 | 0.15 | 1 | 1015.0 |
| 20260505152709 | 11 | 290 | 9.7 | 37.0 | 0.00 | 0.25 | 0.15 | 1 | 1015.0 |
| 20260505152210 | 11 | 269 | 16.1 | 37.0 | 0.00 | 0.25 | 0.15 | 1 | 1014.9 |
| 20260505151710 | 11 | 247 | 9.7 | 33.8 | 0.00 | 0.25 | 0.15 | 1 | 1014.9 |
| 20260505151209 | 11 | 255 | 16.1 | 33.8 | 0.00 | 0.25 | 0.15 | 1 | 1014.9 |
| 20260505150710 | 11 | 0 | 6.4 | 29.0 | 0.00 | 0.25 | 0.15 | 1 | 1014.9 |
| 20260505150210 | 11 | 313 | 12.9 | 29.0 | 0.00 | 0.25 | 0.15 | 1 | 1014.8 |
| 20260505140207 | 11 | 281 | 14.5 | 29.0 | 0.00 | 0.25 | 0.15 | 1 | 1014.5 |
| 20260505130206 | 11 | 259 | 11.3 | 27.4 | 0.00 | 0.25 | 0.15 | 1 | 1014.2 |
| 20260505124705 | 11 | 283 | 16.1 | 27.4 | 0.00 | 0.25 | 0.15 | 1 | 1014.2 |
| 20260505124206 | 11 | 281 | 8.0 | 27.4 | 0.00 | 0.25 | 0.15 | 1 | 1014.2 |
| 20260505123707 | 11 | 228 | 17.7 | 27.4 | 0.00 | 0.25 | 0.15 | 1 | 1014.2 |
| 20260505123203 | 11 | 118 | 9.7 | 32.2 | 0.00 | 0.25 | 0.15 | 1 | 1014.2 |
| 20260505122702 | 11 | 244 | 16.1 | 33.8 | 0.00 | 0.25 | 0.15 | 1 | 1014.2 |
| 20260505122205 | 11 | 247 | 9.7 | 33.8 | 0.00 | 0.25 | 0.15 | 1 | 1014.2 |
| 20260505121706 | 11 | 247 | 20.9 | 32.2 | 0.00 | 0.25 | 0.15 | 1 | 1014.2 |
| 20260505121205 | 10 | 272 | 6.4 | 33.8 | 0.00 | 0.25 | 0.15 | 1 | 1014.2 |
| 20260505120705 | 10 | 255 | 17.7 | 33.8 | 0.00 | 0.25 | 0.15 | 1 | 1014.2 |
| 20260505120204 | 10 | 279 | 12.9 | 32.2 | 0.00 | 0.25 | 0.15 | 1 | 1014.0 |
| 20260505115706 | 10 | 0 | 14.5 | 29.0 | 0.00 | 0.25 | 0.15 | 1 | 1014.2 |